North Platte, NE

3:20 PM CDT on March 30, 2017 (GMT -0500)
North Platte Regional-Bird

Weather History for KLBF - March, 2013

Change the Weather History Date:

Sunday, March 17, 2013

  Actual Average Record
Temperature  
Mean Temperature 33 °F 38 °F  
Max Temperature 38 °F 53 °F 82 °F (2012)
Min Temperature 27 °F 24 °F -8 °F (1906)
Degree Days  
Heating Degree Days 32 27  
Month to date heating degree days 472 495  
Since 1 July heating degree days 5432 5523  
Cooling Degree Days 0 0  
Month to date cooling degree days 0 0  
Year to date cooling degree days 0 0  
Moisture  
Dew Point 26 °F    
Average Humidity 73    
Maximum Humidity 92    
Minimum Humidity 54    
Precipitation  
Precipitation 0.03 in 0.03 in 0.76 in (2003)
Month to date precipitation 0.11 0.50  
Year to date precipitation 1.39 1.34  
Snow  
Snow T in 0.10 in 5.40 in (2008)
Month to date snowfall 1.6 2.5  
Since 1 July snowfall 21.5 23.4  
Snow Depth 0.00 in    
Sea Level Pressure  
Sea Level Pressure 29.83 in    
Wind  
Wind Speed 11 mph (SE)    
Max Wind Speed 22 mph    
Max Gust Speed 30 mph    
Visibility 7 miles    
Events Rain    
T = Trace of Precipitation, MM = Missing Value Source: NWS Daily Summary

Daily Weather History Graph

Daily Weather History Graph

Search for Another Location

Airport or City:

Trip Planner

Search our weather history database for the weather conditions in past years. The results will help you decide how hot, cold, wet, or windy it might be!

Date:

Astronomy

Mar. 17, 2013 Rise Set
Actual Time 7:50 AM CDT 7:51 PM CDT
Civil Twilight 7:23 AM CDT 8:19 PM CDT
Nautical Twilight 6:51 AM CDT 8:51 PM CDT
Astronomical Twilight 6:18 AM CDT 9:24 PM CDT
Moon 11:01 AM CDT (3/17) 1:04 AM CDT (3/17)
Length of Visible Light 12h 56m
Length of Day
12h 01m
Waxing Crescent, 31% of the Moon is Illuminated
Mar 17
Waxing Crescent
Mar 19
First Quarter
Mar 27
Full
Apr 2
Last Quarter
Apr 10
New

Hourly Weather History & Observations

Time (CDT) Temp. Windchill Dew Point Humidity Pressure Visibility Wind Dir Wind Speed Gust Speed Precip Events Conditions
12:27 AM 32.0 °F 21.6 °F 17.6 °F 55% 29.99 in 10.0 mi SE 15.0 mph - N/A   Overcast
12:53 AM 32.0 °F 23.0 °F 18.0 °F 56% 30.04 in 10.0 mi ESE 11.5 mph - N/A   Overcast
1:53 AM 30.9 °F 21.2 °F 19.0 °F 61% 30.02 in 10.0 mi ESE 12.7 mph - N/A   Overcast
2:53 AM 30.0 °F 19.5 °F 19.0 °F 64% 30.00 in 10.0 mi ESE 13.8 mph - N/A   Overcast
3:53 AM 30.0 °F 20.5 °F 19.9 °F 66% 29.99 in 10.0 mi SE 11.5 mph - N/A   Overcast
4:53 AM 28.4 °F 21.2 °F 21.2 °F 74% 29.92 in 10.0 mi SSE 6.9 mph - N/A   Overcast
5:53 AM 28.0 °F 20.0 °F 24.1 °F 85% 29.97 in 5.0 mi SSE 8.1 mph - N/A   Overcast
6:00 AM 28.4 °F 19.7 °F 24.8 °F 86% 29.91 in 5.0 mi SSE 9.2 mph - N/A   Overcast
6:53 AM 27.0 °F 19.5 °F 25.0 °F 92% 29.97 in 4.0 mi SE 6.9 mph - N/A   Overcast
7:53 AM 27.0 °F 18.0 °F 25.0 °F 92% 29.95 in 3.0 mi SE 9.2 mph - N/A   Overcast
8:10 AM 26.6 °F 17.5 °F 24.8 °F 93% 29.88 in 2.0 mi SE 9.2 mph - N/A   Overcast
8:19 AM 26.6 °F 16.8 °F 24.8 °F 93% 29.87 in 1.8 mi ESE 10.4 mph - N/A   Overcast
8:34 AM 26.6 °F 16.8 °F 24.8 °F 93% 29.87 in 2.0 mi SE 10.4 mph - N/A   Overcast
8:53 AM 27.0 °F 16.7 °F 25.0 °F 92% 29.93 in 2.0 mi SE 11.5 mph - N/A   Overcast
9:04 AM 26.6 °F 16.2 °F 24.8 °F 93% 29.86 in 1.8 mi SE 11.5 mph - N/A   Overcast
9:26 AM 26.6 °F 16.2 °F 24.8 °F 93% 29.85 in 2.0 mi SE 11.5 mph - N/A   Overcast
9:53 AM 28.0 °F 18.6 °F 26.1 °F 92% 29.91 in 1.8 mi SE 10.4 mph - N/A   Overcast
10:22 AM 28.4 °F 17.5 °F 26.6 °F 93% 29.82 in 2.0 mi SE 13.8 mph - N/A   Overcast
10:40 AM 28.4 °F 19.1 °F 26.6 °F 93% 29.83 in 3.0 mi SE 10.4 mph - N/A   Overcast
10:49 AM 28.4 °F 19.7 °F 26.6 °F 93% 29.83 in 2.5 mi SE 9.2 mph - N/A   Overcast
10:53 AM 28.9 °F 20.4 °F 27.0 °F 92% 29.90 in 2.5 mi SE 9.2 mph - N/A   Overcast
11:16 AM 28.4 °F 19.1 °F 26.6 °F 93% 29.81 in 3.0 mi SSE 10.4 mph - N/A   Overcast
11:53 AM 30.0 °F 19.1 °F 28.0 °F 92% 29.86 in 10.0 mi SSE 15.0 mph - N/A   Overcast
12:53 PM 32.0 °F 21.6 °F 28.0 °F 85% 29.81 in 10.0 mi SSE 15.0 mph - N/A   Overcast
1:53 PM 35.1 °F 24.1 °F 28.0 °F 76% 29.76 in 10.0 mi South 19.6 mph 26.5 mph N/A   Overcast
2:28 PM 35.6 °F 25.9 °F 28.4 °F 75% 29.69 in 10.0 mi SSE 16.1 mph 21.9 mph N/A   Overcast
2:53 PM 35.1 °F 25.2 °F 28.0 °F 76% 29.72 in 10.0 mi SSE 16.1 mph 24.2 mph N/A   Overcast
3:53 PM 35.1 °F 29.3 °F 28.9 °F 78% 29.71 in 9.0 mi SSE 6.9 mph - N/A   Overcast
4:53 PM 36.0 °F 28.5 °F 30.0 °F 79% 29.68 in 8.0 mi ESE 10.4 mph - N/A   Overcast
5:40 PM 37.4 °F 30.8 °F 30.2 °F 75% 29.60 in 9.0 mi SE 9.2 mph - N/A   Overcast
5:53 PM 37.0 °F 28.1 °F 30.0 °F 76% 29.64 in 9.0 mi SE 15.0 mph - N/A   Overcast
6:53 PM 37.0 °F 30.4 °F 30.0 °F 76% 29.66 in 10.0 mi SSE 9.2 mph - N/A   Overcast
7:53 PM 37.0 °F 31.0 °F 30.9 °F 79% 29.70 in 10.0 mi South 8.1 mph - N/A   Overcast
8:53 PM 35.1 °F 26.4 °F 32.0 °F 89% 29.69 in 7.0 mi SSE 12.7 mph - 0.03 in Rain Light Rain
9:53 PM 33.1 °F 27.7 °F 30.9 °F 92% 29.69 in 6.0 mi SSE 5.8 mph - 0.00 in   Scattered Clouds
10:31 PM 33.8 °F - 30.2 °F 87% 29.67 in 7.0 mi Calm Calm - N/A   Overcast
10:41 PM 33.8 °F 28.6 °F 30.2 °F 87% 29.69 in 8.0 mi West 5.8 mph - N/A   Overcast
10:49 PM 33.8 °F 29.6 °F 30.2 °F 87% 29.70 in 7.0 mi WNW 4.6 mph - N/A   Overcast
10:53 PM 33.1 °F - 30.9 °F 92% 29.77 in 7.0 mi Calm Calm - N/A   Mostly Cloudy
11:53 PM 35.1 °F 24.5 °F 30.0 °F 82% 29.80 in 10.0 mi North 18.4 mph 24.2 mph N/A   Mostly Cloudy